Regional Weather Roundup
Issued by NWS State College, PA

Home | Current Version | Previous Version | Graphics & Text | Print | Product List | Glossary Off
Versions: 1 2 3 4 5 6 7 8 9 10 11 12 13 14 15 16 17 18 19 20 21 22 23 24 25 26 27 28 29 30 31 32 33 34 35 36 37 38 39 40 41 42 43 44 45 46 47 48 49 50

000
ASUS41 KCTP 222103
RWRCTP

REGIONAL WEATHER ROUNDUP
NATIONAL WEATHER SERVICE STATE COLLEGE PA
500 PM EDT FRI AUG 22 2014

Note: "fair" indicates few or no clouds below 12,000 feet with no
significant weather and/or obstructions to visibility.

* = STATION THAT DOES NOT REPORT PRECIPITATION /E.G. RAIN...SNOW...ETC/
    THUNDER OR FOG.

PAZ002>004-007>009-013>016-020>023-029>032-222200-
WESTERN PENNSYLVANIA

CITY           SKY/WX    TMP DP  RH WIND       PRES   REMARKS
ERIE           MOSUNNY   78  68  71 NE8       29.96F
MEADVILLE      CLOUDY    75  70  84 CALM      29.98F
FRANKLIN*      CLOUDY    75  68  78 N3        29.99S
NEW CASTLE     NOT AVBL
BEAVER COUNTY  PTSUNNY   81  68  65 SE3       29.96F
BUTLER*        MOSUNNY   82  70  65 CALM      29.98F
PITTSBURGH INT MOSUNNY   81  69  67 CALM      29.95F
PITTSBURGH     PTSUNNY   80  69  69 S7        29.95F
INDIANA*       PTSUNNY   75  70  83 MISG      30.02S
LATROBE        PTSUNNY   81  72  74 W7        29.98S
WASHINGTON CO* CLOUDY    75  72  88 CALM      29.97F
$$

PAZ004>006-010>012-017>019-024>028-033>037-041-042-045-046-049>053-222200-
CENTRAL PENNSYLVANIA

CITY           SKY/WX    TMP DP  RH WIND       PRES   REMARKS
BRADFORD       PTSUNNY   79  65  62 MISG      29.99F
DUBOIS         PTSUNNY   76  68  76 SE5       29.99S
CLEARFIELD     PTSUNNY   75  69  81 SW7       30.00S
JOHNSTOWN      CLOUDY    73  66  78 CALM      30.02S
ALTOONA        LGT RAIN  72  69  90 E3        30.00F FOG
STATE COLLEGE  PTSUNNY   75  66  73 SW9       29.99S
WILLIAMSPORT   TSTM      76  65  68 SE3       29.95R
SELINSGROVE    CLOUDY    78  68  71 SE6       29.96S
FT INDIANTOWN  PTSUNNY   76  70  81 SE6       29.99S
CAPITAL CITY   MOSUNNY   77  68  73 SE8       29.97S
HARRISBURG     PTSUNNY   80  70  71 SE7       29.96S
YORK           CLOUDY    78  68  71 VRB3      29.97F
$$

PAZ038>040-043-044-047-048-054-055-060>062-067>071-222200-
EASTERN PENNSYLVANIA

CITY           SKY/WX    TMP DP  RH WIND       PRES   REMARKS
SCRANTON       PTSUNNY   73  66  78 VRB3      30.00S
MOUNT POCONO   FOG       66  63  90 SE7       30.05S VSB 3/4
ALLENTOWN      CLOUDY    75  65  70 SE7       30.00R
QUAKERTOWN*    MOCLDY    73  66  78 MISG      30.01S
READING        CLOUDY    77  66  68 S5        29.97F
LANCASTER      PTSUNNY   77  66  68 E5        29.98F
COATESVILLE    CLOUDY    75  75 100 CALM      30.00S
POTTSTOWN      CLOUDY    75  66  73 VRB7      30.00F
BLUE BELL      CLOUDY    75  66  73 E3        29.98F
DOYLESTOWN     CLOUDY    73  65  75 CALM      30.00S
WILLOW GROVE   NOT AVBL
NORTH PHILA    CLOUDY    76  63  64 E12       30.01S
PHILADELPHIA   CLOUDY    77  66  68 E9        29.98F
$$



USA.gov is the U.S. government's official web portal to all federal, state and local government web resources and services.